Вернуться в каталог

POLAR BEAR

АктивенВоенныеPO
NORAD 17070·PAYLOAD·🇺🇸 United States

Запущен Nov 14, 1986 с Vandenberg Space Force Base

Loading…

Ближайшие Пролёты (ближайшие 24 часа)

TLE

СвежийSource: Space-Track

Эпоха: Sep 14, 2026, 05:41 UTC

1 17070U 86088A   26257.23748125  .00000088  00000-0  80107-4 0  9995
2 17070  89.6257 172.8588 0039973  12.4248 150.1120 13.75300918997658

Отслеживайте POLAR BEAR в реальном времени с AllMySat

Download on the App Store